sat.trackr.live / text

‹ back to catalog

STARLINK-2481

NORAD 48138 · 2021-027AY

PAYLOAD ACTIVE UNKNOWN

§ Identity

Operator
Country
US
Launch date
2021-04-07
Launch site
AFETR
Launch vehicle
Mass (kg)
RCS (m²)

Purposes: comms

External: N2YO · Heavens-Above · Gunter

§ Orbital elements

Epoch: 2026-09-14T17:15:03.055968Z

Period
94.01 min
Inclination
53.1612°
Eccentricity
0.0001292
Mean motion
15.31707872 rev/d
Perigee alt
469.8 km
Apogee alt
471.6 km
Semi-major
6,848.9 km
B*
1.3561e-4
RAAN
8.0632°
Arg perigee
68.0440°
Mean anomaly
292.0698°
Rev number
30,144

§ Raw data

STARLINK-24811 48138U 21027AY  26257.71878537  .00003846  00000+0  13561-3 0  99932 48138  53.1612   8.0632 0001292  68.0440 292.0698 15.31707872301448

JSON: /api/v1/satellites/48138 · /tle

For live sub-satellite position, see the globe view (requires WebGL).

§ Visibility from observer

Set your observer location to see the next 7 days of passes ≥ 10°. The values pass through the URL so the page stays shareable.

No JS? Fill the form by hand. The geolocation button needs JavaScript.